Location: Boone Canyon
(38.3180°N, 119.2504°W)
Time: 17:36:38
(UTC+00:00)

Cosmos 1238 Rocket - Pass Details

Date: 18 September 2020
Orbit: 375 x 1027 km, 82.9° (Epoch: 19 October)

Event Time Altitude Azimuth Distance (km) Brightness Sun altitude
Rises 12:15:49 0° 346° (NNW) 3,786 7.1 -17.4°
Reaches altitude 10° 12:18:34 10° 340° (NNW) 2,822 6.4 -16.9°
Maximum altitude 12:24:42 43° 272° (W) 1,358 4.3 -15.7°
Drops below altitude 10° 12:30:20 10° 203° (SSW) 2,584 5.9 -14.7°
Sets 12:32:46 0° 196° (SSW) 3,438 6.6 -14.2°
